Location: Unnamed
(48.6007°N, 2.4808°E)
Time: 23:39:17
(UTC+01:00)

VELOX 1 - Visible Passes

Search period start: 08 December 2023 00:00
Search period end: 18 December 2023 00:00
Orbit: 610 x 625 km, 98.4° (Epoch: 08 December)

Date Brightness Start Highest point End Pass type
(mag) Time Alt. Az. Time Alt. Az. Time Alt. Az.
08 Dec ? 05:33:34 10° ENE 05:34:32 11° NE 05:35:30 10° NE visible
08 Dec ? 07:05:31 10° SSE 07:09:47 75° ENE 07:14:05 10° N visible
09 Dec ? 05:48:30 10° E 05:50:52 15° ENE 05:53:14 10° NNE visible
09 Dec ? 07:22:04 10° S 07:26:19 76° WSW 07:30:38 10° NNW visible
10 Dec ? 06:04:08 10° ESE 06:07:14 20° ENE 06:10:21 10° NNE visible
10 Dec ? 07:38:45 10° S 07:42:55 51° W 07:47:07 10° NNW visible
11 Dec ? 06:20:02 10° ESE 06:23:38 27° ENE 06:27:16 10° N visible
11 Dec ? 07:55:37 10° SSW 07:59:32 35° W 08:03:30 10° NNW visible
12 Dec ? 06:36:07 10° SE 06:40:03 37° ENE 06:44:02 10° N visible
13 Dec ? 06:52:22 10° SSE 06:56:31 54° ENE 07:00:43 10° N visible
14 Dec ? 05:36:32 10° ENE 05:37:45 11° NE 05:38:59 10° NE visible
14 Dec ? 07:08:45 10° SSE 07:13:01 78° ENE 07:17:20 10° NNW visible
15 Dec ? 05:51:35 10° E 05:54:04 15° ENE 05:56:32 10° NNE visible
15 Dec ? 07:25:17 10° S 07:29:33 73° WSW 07:33:51 10° NNW visible
16 Dec ? 06:07:13 10° ESE 06:10:24 21° ENE 06:13:35 10° NNE visible
16 Dec ? 07:41:57 10° S 07:46:06 49° W 07:50:18 10° NNW visible
17 Dec ? 06:23:07 10° ESE 06:26:46 28° ENE 06:30:26 10° N visible
17 Dec ? 07:58:47 10° SSW 08:02:41 34° W 08:06:38 10° NNW visible
